WetterOnline ( https://www.wetteronline.de )

Wetter aktuell Kescheid

Aktuelles Wetter: Königswinter-Heiderhof (147m)

6-stündlich | Neueste Meldungen
Ortszeit Temperatur Wetter
Di, 18.01. 7:00 5.4° C bedeckt
Di, 18.01. 1:00 6.0° C bedeckt
Mo, 17.01. 19:00 6.1° C bewölkt
Mo, 17.01. 13:00 5.9° C Sprühregen
Mo, 17.01. 7:00 4.5° C bedeckt
Mo, 17.01. 1:00 4.4° C bedeckt
So, 16.01. 19:00 4.4° C bedeckt
So, 16.01. 13:00 5.0° C bedeckt
Ortszeit Temperatur Wetter
Di, 18.01. 11:30 6.1° C bedeckt
Di, 18.01. 11:20 6.1° C bedeckt
Di, 18.01. 11:10 6.0° C bedeckt
Di, 18.01. 11:00 5.9° C bedeckt
Di, 18.01. 10:50 5.9° C bedeckt
Di, 18.01. 10:40 5.9° C bewölkt
Di, 18.01. 10:30 5.8° C bedeckt
Di, 18.01. 10:00 5.7° C bedeckt
Di, 18.01. 9:30 5.5° C bedeckt
Di, 18.01. 9:00 5.5° C bedeckt
Di, 18.01. 8:30 5.2° C bedeckt
Ortszeit Relative Feuchte Sichtweite
Di, 18.01. 7:00 95% 14 km
Di, 18.01. 1:00 91% 19 km
Mo, 17.01. 19:00 93% 9 km
Mo, 17.01. 13:00 86% 10 km
Mo, 17.01. 7:00 90% 13 km
Mo, 17.01. 1:00 91% 15 km
So, 16.01. 19:00 87% 30 km
So, 16.01. 13:00 78% 28 km
Ortszeit Relative Feuchte Sichtweite
Di, 18.01. 11:30 93% 11 km
Di, 18.01. 11:20 93% -
Di, 18.01. 11:10 93% -
Di, 18.01. 11:00 93% 11 km
Di, 18.01. 10:50 93% -
Di, 18.01. 10:40 93% -
Di, 18.01. 10:30 95% 11 km
Di, 18.01. 10:00 95% 12 km
Di, 18.01. 9:30 95% 11 km
Di, 18.01. 9:00 95% 13 km
Di, 18.01. 8:30 97% 9 km
Ortszeit Niederschlagsmenge Niederschlagsart
Di, 18.01. 7:00 0.1 l/m2 in 12 Std. Regen
Di, 18.01. 1:00 0.1 l/m2 in 6 Std. Regen
Mo, 17.01. 19:00 0.5 l/m2 in 12 Std. Regen
Mo, 17.01. 13:00 0.1 l/m2 in 6 Std. Regen
Mo, 17.01. 7:00 0.5 l/m2 in 12 Std. Regen
Mo, 17.01. 1:00 0.1 l/m2 in 6 Std. Regen
So, 16.01. 19:00 0.1 l/m2 in 12 Std. Regen
So, 16.01. 13:00 0.1 l/m2 in 6 Std. Regen
Ortszeit Niederschlagsmenge Niederschlagsart
Di, 18.01. 11:30 0.0 l/m2 in 1 Std. -
Di, 18.01. 11:20 keine Meldung -
Di, 18.01. 11:10 keine Meldung -
Di, 18.01. 11:00 0.0 l/m2 in 1 Std. -
Di, 18.01. 10:50 keine Meldung -
Di, 18.01. 10:40 keine Meldung -
Di, 18.01. 10:30 0.0 l/m2 in 1 Std. -
Di, 18.01. 10:00 0.1 l/m2 in 1 Std. Sprühregen
Di, 18.01. 9:30 0.1 l/m2 in 1 Std. Schnee
Di, 18.01. 9:00 0.0 l/m2 in 1 Std. -
Di, 18.01. 8:30 0.0 l/m2 in 1 Std. -
Ortszeit Stärke Spitze Richtung
km/h Bft. km/h Grad Sektor
Di, 18.01. 7:00 4 1 14 290° W
Di, 18.01. 1:00 7 2 29 310° NW
Mo, 17.01. 19:00 13 3 37 290° W
Mo, 17.01. 13:00 22 4 40 280° W
Mo, 17.01. 7:00 14 3 29 270° W
Mo, 17.01. 1:00 18 3 29 260° W
So, 16.01. 19:00 11 2 30 240° SW
So, 16.01. 13:00 14 3 29 250° W
Ortszeit Stärke Spitze Richtung
km/h Bft. km/h Grad Sektor
Di, 18.01. 11:30 4 1 7 300° NW
Di, 18.01. 11:20 4 1 - 300° NW
Di, 18.01. 11:10 4 1 - 320° NW
Di, 18.01. 11:00 4 1 7 290° W
Di, 18.01. 10:50 4 1 - 290° W
Di, 18.01. 10:40 4 1 - 310° NW
Di, 18.01. 10:30 4 1 7 280° W
Di, 18.01. 10:00 4 1 7 280° W
Di, 18.01. 9:30 6 1 9 280° W
Di, 18.01. 9:00 6 1 7 290° W
Di, 18.01. 8:30 0 0 7 - -
Ortszeit Untergrenze Bedeckung Gattung
total tief tief mittel hoch
Di, 18.01. 7:00 300 m 8/8 8/8 - - -
Di, 18.01. 1:00 570 m 8/8 8/8 - - -
Mo, 17.01. 19:00 240 m 7/8 7/8 - - -
Mo, 17.01. 13:00 390 m 8/8 8/8 - - -
Mo, 17.01. 7:00 270 m 8/8 8/8 - - -
Mo, 17.01. 1:00 240 m 8/8 8/8 - - -
So, 16.01. 19:00 360 m 8/8 8/8 - - -
So, 16.01. 13:00 1080 m 8/8 8/8 - - -
Ortszeit Bedeckungsgrad in Achtel und Wolkenuntergrenze
Di, 18.01. 11:30 8(210m)
Di, 18.01. 11:20 8(210m)
Di, 18.01. 11:10 8(210m)
Di, 18.01. 11:00 8(210m)
Di, 18.01. 10:50 8(210m)
Di, 18.01. 10:40 7(210m)
Di, 18.01. 10:30 4(210m) 6(390m) 8(870m)
Di, 18.01. 10:00 1(450m) 8(840m)
Di, 18.01. 9:30 4(210m) 8(780m)
Di, 18.01. 9:00 7(210m) 8(750m)
Di, 18.01. 8:30 7(180m) 8(870m)
Ortszeit Luftdruck NN (hPa) Tendenz (hPa in 3 Std.)
Di, 18.01. 7:00 1038 + 0,4
Di, 18.01. 1:00 1037 + 0,2
Mo, 17.01. 19:00 1036 + 1,4
Mo, 17.01. 13:00 1034 + 0,9
Mo, 17.01. 7:00 1032 + 0,6
Mo, 17.01. 1:00 1031 + 1,3
So, 16.01. 19:00 1028 + 1,5
So, 16.01. 13:00 1026 + 0,8
Ortszeit Luftdruck NN (hPa) Tendenz (hPa in 3 Std.)
Di, 18.01. 11:30 1040 + 0,6
Di, 18.01. 11:20 1040 keine Meldung
Di, 18.01. 11:10 1040 keine Meldung
Di, 18.01. 11:00 1040 + 0,9
Di, 18.01. 10:50 1040 keine Meldung
Di, 18.01. 10:40 1040 keine Meldung
Di, 18.01. 10:30 1040 + 0,9
Di, 18.01. 10:00 1039 + 0,8
Di, 18.01. 9:30 1039 + 0,8
Di, 18.01. 9:00 1039 + 0,9
Di, 18.01. 8:30 1039 + 0,9
Ortszeit Schneehöhe (cm)
Di, 18.01. 7:00 0
Di, 18.01. 1:00 0
Mo, 17.01. 19:00 0
Mo, 17.01. 13:00 0
Mo, 17.01. 7:00 0
Mo, 17.01. 1:00 0
So, 16.01. 19:00 0
So, 16.01. 13:00 0
Ortszeit Schneehöhe (cm)
Di, 18.01. 11:30 0
Di, 18.01. 11:20 0
Di, 18.01. 11:10 0
Di, 18.01. 11:00 0
Di, 18.01. 10:50 0
Di, 18.01. 10:40 0
Di, 18.01. 10:30 0
Di, 18.01. 10:00 0
Di, 18.01. 9:30 0
Di, 18.01. 9:00 0
Di, 18.01. 8:30 0
Link zu dieser Seite / Seite empfehlen

Das Wetter in ...